Regional Weather Roundup
Issued by NWS Burlington, VT

Home | Current Version | Previous Version | Text Only | Print | Product List | Glossary On
Versions: 1 2 3 4 5 6 7 8 9 10 11 12 13 14 15 16 17 18 19 20 21 22 23 24 25 26 27 28 29 30 31 32 33 34 35 36 37 38 39 40 41 42 43 44 45 46 47 48 49 50
628
ASUS41 KBTV 250030
RWRBTV
VERMONT REGIONAL WEATHER ROUNDUP
NATIONAL WEATHER SERVICE BURLINGTON VT
800 PM EDT SAT AUG 24 2019

NOTE: "FAIR" INDICATES FEW OR NO CLOUDS BELOW 12,000 FEET WITH NO
SIGNIFICANT WEATHER AND/OR OBSTRUCTIONS TO VISIBILITY.

* THESE REPORTS ARE NOT UNDER NWS QUALITY CONTROL AND/OR DO NOT
  REPORT WEATHER SUCH AS PRECIPITATION AND FOG.

VTZ001>019-250100-
_____VERMONT_____


CITY           SKY/WX    TMP DP  RH WIND       PRES   REMARKS
BURLINGTON     FAIR      66  55  67 N5        30.28R
6HR MIN TEMP:  65; 6HR MAX TEMP:  70;

MONTPELIER     FAIR      59  55  87 CALM      30.32R
6HR MIN TEMP:  59; 6HR MAX TEMP:  68;

MORRISVILLE    FAIR      60  55  83 CALM      30.29R
6HR MIN TEMP:  59; 6HR MAX TEMP:  70;

ST. JOHNSBURY*   N/A     63  56  78 MISG      30.26R
6HR MIN TEMP:  63; 6HR MAX TEMP:  71;

LYNDONVILLE*   FAIR      61  51  71 NW6       30.31R
6HR MIN TEMP:  62; 6HR MAX TEMP:  69;

MIDDLEBURY*    FAIR      58  55  89 CALM      30.29R
6HR MIN TEMP:  59; 6HR MAX TEMP:  69;

RUTLAND*       MOCLDY    63  55  75 N7        30.28R
6HR MIN TEMP:  63; 6HR MAX TEMP:  70;

SPRINGFIELD    CLOUDY    67  53  61 CALM      30.26R
6HR MIN TEMP:  67; 6HR MAX TEMP:  74;

HIGHGATE*      FAIR      62  58  88 CALM      30.29R
6HR MIN TEMP:  65; 6HR MAX TEMP:  73;

NEWPORT*       MOCLDY    60  56  85 NW5       30.31R
6HR MIN TEMP:  61; 6HR MAX TEMP:  68;

BENNINGTON     CLOUDY    64  56  75 CALM      30.25R
6HR MIN TEMP:  64; 6HR MAX TEMP:  72;

ISLAND POND*     N/A     55 N/A N/A CALM        N/A
GALLUP MILLS*    N/A     54 N/A N/A MISG        N/A
LAKE EDEN*       N/A     59 N/A N/A CALM        N/A
MT. MANSFIELD*   N/A     54 N/A N/A W3          N/A

_____LAKE CHAMPLAIN_____


CITY           SKY/WX    TMP DP  RH WIND       PRES   REMARKS
BURTON ISLAND*   N/A     68  57  68 NW1         N/A
COLCHESTER RF*   N/A     68  57  68 N8          N/A
DIAMOND ISL*     N/A     66  54  63 NW9         N/A

$$

NYZ007-026>031-035-052-083-087-250100-
_____NORTHERN NEW YORK_____


CITY           SKY/WX    TMP DP  RH WIND       PRES   REMARKS
PLATTSBURGH    FAIR      60  56  86 CALM      30.28R
6HR MIN TEMP:  60; 6HR MAX TEMP:  69;

SARANAC LAKE   FAIR      54  52  93 CALM      30.30R
6HR MIN TEMP:  54; 6HR MAX TEMP:  64;

MASSENA        FAIR      63  57  81 CALM      30.30R
6HR MIN TEMP:  63; 6HR MAX TEMP:  73;

OGDENSBURG*    FAIR      57  55  94 CALM      30.26S
POTSDAM*       FAIR      59  55  88 CALM      30.29R
WATERTOWN      FAIR      61  52  72 NE5       30.27S
6HR MIN TEMP:  61; 6HR MAX TEMP:  72;

FT DRUM        FAIR      61  55  79 NE6       30.27S
6HR MIN TEMP:  61; 6HR MAX TEMP:  69;

ALBANY         MOCLDY    69  54  58 N9        30.24R
6HR MIN TEMP:  69; 6HR MAX TEMP:  75;

GLENS FALLS    CLOUDY    64  53  67 N7        30.26R
6HR MIN TEMP:  64; 6HR MAX TEMP:  73;


$$
NHZ002-005-011-250100-
_____NEW HAMPSHIRE_____


CITY           SKY/WX    TMP DP  RH WIND       PRES   REMARKS
LEBANON        CLOUDY    65  57  75 CALM      30.25R
6HR MIN TEMP:  65; 6HR MAX TEMP:  74;

KEENE          CLOUDY    66  59  78 CALM      30.24R
6HR MIN TEMP:  66; 6HR MAX TEMP:  74;

MT WASHINGTON  FOG       43  43 100 NE8         N/A  VSB 1/8
6HR MIN TEMP:  42; 6HR MAX TEMP:  47;

PLYMOUTH       CLOUDY    65  58  77 CALM      30.27R
6HR MIN TEMP:  65; 6HR MAX TEMP:  73;

WHITEFIELD     FAIR      60  53  77 CALM      30.28R
6HR MIN TEMP:  60; 6HR MAX TEMP:  72;


$$

_____REGIONAL QUEBEC LOCATIONS_____


CITY           SKY/WX    TMP DP  RH WIND       PRES   REMARKS
MONTREAL       PTCLDY    66  52  59 NE10      30.28R
QUEBEC CITY    PTCLDY    59  46  63 NE3       30.31R
SHERBROOKE     CLEAR     61  52  72 NE2       30.30R

_____REGIONAL ONTARIO LOCATIONS_____


CITY           SKY/WX    TMP DP  RH WIND       PRES   REMARKS
OTTAWA         PTCLDY    66  54  63 E6        30.27S

______KEY______
VSB  - VISIBILITY IN MILES
WCI  - WIND CHILL INDEX
HX   - HEAT INDEX
$$
NNNN




USA.gov is the U.S. government's official web portal to all federal, state and local government web resources and services.